Location: Albany
(35.0000°S, 118.0000°E)
Time: 15:18:28
(UTC-05:00)

SJ-6B - Visible Passes

Search period start: 07 December 2016 00:00
Search period end: 17 December 2016 00:00
Orbit: 511 x 585 km, 97.8° (Epoch: 07 December)

Date Brightness Start Highest point End Pass type
(mag) Time Alt. Az. Time Alt. Az. Time Alt. Az.
07 Dec 6.2 07:53:04 10° SW 07:54:16 11° WSW 07:55:28 10° W visible
08 Dec 6.1 07:47:46 10° SW 07:49:33 13° WSW 07:51:19 10° W visible
09 Dec 5.9 07:42:38 10° SSW 07:44:50 14° WSW 07:47:00 10° W visible
10 Dec 5.8 07:37:35 10° SSW 07:40:06 16° WSW 07:42:35 10° WNW visible
11 Dec 5.8 07:32:35 10° SSW 07:35:22 18° WSW 07:38:06 10° WNW visible
12 Dec 5.6 07:27:37 10° SSW 07:30:37 21° WSW 07:33:34 10° WNW visible
13 Dec 5.4 07:22:41 10° SSW 07:25:53 24° WSW 07:29:00 10° NW visible
14 Dec 5.1 07:17:46 10° SSW 07:21:08 27° WSW 07:24:24 10° NW visible
15 Dec 4.9 07:12:52 10° S 07:16:21 30° WSW 07:19:45 10° NW visible
16 Dec 4.6 07:08:00 10° S 07:11:36 35° WSW 07:15:06 10° NW visible
